FLOCK 3R-12 (43724 NORAD) Tracking and Keplerian Element Data

This shows tracking and keplerian element data for the satellite.

Feedback or suggestion? Click here.




ElementValue
Catalog43724
NameFLOCK 3R-12
Epoch Orbit457
Epoch Day363.21021231
Epoch Year2018
RAAN68.2271
Inclination97.4815
Eccentricity0.0017439
Argument of Perigee214.018
Mean Anonmoly230.9147
Mean Motion15.25996634
Decay Rate8.43E-06
L11 43724U 18096F 18363.21021231 .00000843 00000-0 35588-4 0 9995
L22 43724 97.4815 68.2271 0017439 214.0180 230.9147 15.25996634 4574

Live tracking and technical data element details for FLOCK 3R-12 (NORAD 43724). FLOCK 3R-12 can be tracked NOW for your location showing map with azimuth and elevation plus other details from your city location.

Track the satellite on the map from your city or location and see movement details for azimuth, elevation, latitude, longitude, range, height, and movement on the map or in text.







IsCatalogInMostPopularTable: catalog: 43724, numindb: 24
Update: records affected: 1



GetName: 43724 FLOCK 3R-12

Hit Count: updated at: Wed, 23 Jan 2019 03:18:51 GMT